Location: Biberach+an+der+Riss
(48.0937°N, 9.7888°E)
Time: 10:34:10
(UTC+01:00)

N. Korean satellite - Visible Passes

Search period start: 20 November 2017 00:00
Search period end: 30 November 2017 00:00
Orbit: 460 x 515 km, 97.2° (Epoch: 19 November)

Date Brightness Start Highest point End Pass type
(mag) Time Alt. Az. Time Alt. Az. Time Alt. Az.
20 Nov 7.0 17:45:11 10° SE 17:48:29 39° ENE 17:51:51 10° N visible
20 Nov 9.6 19:19:58 10° SW 19:22:13 16° W 19:24:29 10° NW visible
21 Nov 8.7 06:42:08 10° NNE 06:45:34 33° E 06:49:00 10° SSE visible
21 Nov 7.7 17:22:22 10° ESE 17:25:09 22° ENE 17:27:59 10° NNE visible
21 Nov 8.6 18:55:28 10° SSW 18:58:33 28° W 19:01:42 10° NW visible
22 Nov 9.8 06:19:12 10° NE 06:21:57 19° E 06:24:41 10° SE visible
22 Nov 7.3 18:31:30 10° S 18:34:57 54° W 18:38:31 10° NNW visible
23 Nov 10.3 05:57:18 10° ENE 05:58:14 11° E 05:59:10 10° ESE visible
23 Nov 6.4 18:07:56 10° SSE 18:11:27 76° ENE 18:15:05 10° N visible
24 Nov 7.3 07:04:58 10° NNE 07:08:42 63° E 07:12:26 10° S visible
24 Nov 7.0 17:44:42 10° SE 17:48:02 39° ENE 17:51:26 10° N visible
24 Nov 9.6 19:19:28 10° SW 19:21:45 16° W 19:24:04 10° NW visible
25 Nov 8.7 06:41:41 10° NNE 06:45:08 33° E 06:48:34 10° SSE visible
25 Nov 7.7 17:21:51 10° ESE 17:24:40 22° ENE 17:27:34 10° NNE visible
25 Nov 8.6 18:54:57 10° SSW 18:58:04 29° W 19:01:17 10° NNW visible
26 Nov 9.7 06:18:44 10° NE 06:21:29 19° E 06:24:14 10° SE visible
26 Nov 7.3 18:30:59 10° S 18:34:28 55° W 18:38:03 10° NNW visible
27 Nov 10.3 05:56:49 10° ENE 05:57:45 11° E 05:58:42 10° ESE visible
27 Nov 6.4 18:07:23 10° SSE 18:10:57 76° ENE 18:14:36 10° N visible
28 Nov 7.3 07:04:27 10° NNE 07:08:13 63° E 07:11:56 10° S visible
28 Nov 7.0 17:44:08 10° SE 17:47:30 39° ENE 17:50:57 10° N visible
28 Nov 9.6 19:18:52 10° SW 19:21:13 16° W 19:23:37 10° NW visible
29 Nov 8.7 06:41:10 10° NNE 06:44:37 33° E 06:48:03 10° SSE visible
29 Nov 7.7 17:21:16 10° ESE 17:24:08 23° ENE 17:27:03 10° NNE visible
29 Nov 8.6 18:54:21 10° SSW 18:57:31 29° W 19:00:46 10° NNW visible
